Find Starlink 34385

NORAD ID: 64352 Int'l Des: 2025-126 Owner: SPXS Country: US Constellation: starlink operational
LEOCIRCULAR

現在のビュー

3D地球を読み込み中...

About Starlink 34385

Starlink 34385 (NORAD 64352) is a starlink constellation satellite (v2 mini) launched Jun 13, 2025 by SPXS of US. It operates in LEO, CIRCULAR orbit with a mass of 575.00 kg.

次回通過

Passes for default location (London). Set your location on the main map for personalized predictions.

高度履歴

Loading altitude history...

軌道要素

1 64352U 25126J 26264.25669096 .00031939 00000-0 11095-2 0 9992
2 64352 69.9993 259.0611 0002780 261.5826 98.5034 15.29618875 70039
Epoch: Sep 21, 2026 • Age: 20 hours

現在のステータス

高度 500.4 km
遠地点 / 近地点 N/A
速度 7.61 km/s
衛星直下点 -69.89°S, 124.91°E
打ち上げ日 Jun 13, 2025
運用期間 1.2 years
タイプ internet

技術仕様

分類 Payload
質量 575.00 kg
乾燥質量 530.00 kg
長さ 0.30 m
スパン 29.00 m
形状 ? Box + pan
製造者 SPXS
バスタイプ Starlink V2MO
フェーズステータス In Orbit
所有者/国 SPXS/US

Most Searched